Location: Newark
(59.8814°N, 10.8258°E)
Time: 21:01:56
(UTC+00:00)

Envisat - Pass Details

Date: 24 January 2020
Orbit: 764 x 766 km, 98.1° (Epoch: 25 February)

Event Time Altitude Azimuth Distance (km) Brightness Sun altitude
Rises 18:08:58 0° 204° (SSW) 3,228 6.6 -21.5°
Reaches altitude 10° 18:11:42 10° 218° (SW) 2,306 6.0 -21.9°
Maximum altitude 18:15:47 24° 272° (W) 1,560 5.4 -22.4°
Drops below altitude 10° 18:19:53 10° 325° (NW) 2,319 5.9 -22.9°
Sets 18:22:39 0° 340° (NNW) 3,250 6.5 -23.3°
